EW7486 Weather Reports


time (UTC)temp
C
wind
direction
speed
KPH
gust
KPH
rain 1hr
cm
rain 24hr
cm
rain mn
cm
humidity
%
barometer
mb
20260504081600 9 229 0.0 0.0 0.00 0.00 0.00 69 1014.9
20260504044542 12 277 0.0 0.0 0.00 0.00 0.00 57 1015.0
20260504043031 13 277 0.0 3.2 0.00 0.00 0.00 56 1014.8
20260504041528 13 277 0.0 0.0 0.00 0.00 0.00 54 1014.9
20260504040026 13 277 0.0 0.0 0.00 0.00 0.00 54 1015.0
20260504034525 14 277 0.0 0.0 0.00 0.00 0.00 53 1015.0
20260504033024 14 293 0.0 1.6 0.00 0.00 0.00 53 1015.0
20260504031528 15 293 0.0 0.0 0.00 0.00 0.00 51 1014.9
20260504030024 15 293 0.0 0.0 0.00 0.00 0.00 50 1014.8
20260504024532 15 184 0.0 3.2 0.00 0.00 0.00 50 1014.8
20260504023103 15 221 0.0 6.4 0.00 0.00 0.00 49 1014.6
20260504021639 16 129 0.0 3.2 0.00 0.00 0.00 49 1014.5
20260504020051 16 197 0.0 1.6 0.00 0.00 0.00 48 1014.3
20260504014617 16 223 0.0 1.6 0.00 0.00 0.00 47 1014.1
20260504013112 17 232 0.0 3.2 0.00 0.00 0.00 46 1014.0
20260504011601 17 152 0.0 3.2 0.00 0.00 0.00 45 1013.7
20260504004621 18 154 0.0 3.2 0.00 0.00 0.00 42 1013.7
20260504003117 18 169 0.0 3.2 0.00 0.00 0.00 42 1013.6
20260504001505 18 152 0.0 3.2 0.00 0.00 0.00 42 1013.5
20260504000137 19 182 0.0 3.2 0.00 0.00 0.00 40 1013.2
20260503234547 20 204 0.0 3.2 0.00 0.00 0.00 39 1013.1
20260503231601 20 219 0.0 3.2 0.00 0.00 0.00 37 1013.3
20260503230041 20 196 0.0 6.4 0.00 0.00 0.00 36 1013.3
20260503224620 21 210 0.0 3.2 0.00 0.00 0.00 35 1013.3
20260503223053 21 191 0.0 3.2 0.00 0.00 0.00 34 1013.2
20260503221631 22 172 0.0 6.4 0.00 0.00 0.00 33 1013.2
20260503220106 22 245 0.0 16.1 0.00 0.00 0.00 33 1013.3
20260503214559 22 164 0.0 3.2 0.00 0.00 0.00 34 1013.6
20260503213051 22 173 0.0 3.2 0.00 0.00 0.00 33 1013.6
20260503211618 22 167 0.0 11.3 0.00 0.00 0.00 34 1013.7
20260503210055 22 128 0.0 6.4 0.00 0.00 0.00 32 1013.9
20260503204540 22 253 0.0 3.2 0.00 0.00 0.00 34 1014.0
20260503203102 22 222 0.0 4.8 0.00 0.00 0.00 35 1014.4
20260503201532 22 111 0.0 8.0 0.00 0.00 0.00 35 1014.6
20260503200109 22 180 0.0 3.2 0.00 0.00 0.00 37 1015.1
20260503194547 21 132 0.0 4.8 0.00 0.00 0.00 36 1015.4
20260503190037 20 103 0.0 6.4 0.00 0.00 0.00 36 1016.2
20260503184551 20 162 1.6 16.1 0.00 0.00 0.00 38 1016.4
20260503183058 20 169 0.0 6.4 0.00 0.00 0.00 39 1016.6
20260503181545 18 164 0.0 3.2 0.00 0.00 0.00 41 1016.7
20260503180052 18 227 0.0 4.8 0.00 0.00 0.00 42 1016.9
20260503174533 17 212 0.0 4.8 0.00 0.00 0.00 43 1017.2
20260503173134 17 159 0.0 3.2 0.00 0.00 0.00 44 1017.2
20260503171613 17 187 0.0 3.2 0.00 0.00 0.00 44 1017.4